[[{"header":{"parameterUnit":"m.s-1","parameterCategory":1,"la1":30.2991,"la2":30.254,"lo1":-89.0895,"lo2":-89.0444,"dy":0.0017,"dx":0.0017,"nx":28,"ny":28,"refTime":"2023-08-20T03:00:00:Z","depth":0,"parameterNumber":2,"parameterNumberName":"U-component_of_WINDS"},"data":[0,0,0,0,0,0,0,0,0,0,0,0,0,0,0,0,0,0,0,0,0,0,0,0,0,0,0,0,0,0,0,0,0,0,0,0,0,0,0,0,0,0,0,0,0,0,0,0,0,0,0,0,0,0,0,0,0,0,-4.7531,-4.7532,0,-4.7548,-4.7548,-4.7548,-4.7477,-4.7475,-4.7473,-4.7471,-4.7486,-4.7489,-4.7491,0,0,0,0,0,0,0,0,0,0,0,0,0,-4.7438,-4.744,-4.7531,-4.7532,-4.7532,-4.7548,-4.7548,-4.7548,-4.7478,-4.7475,-4.7473,-4.747,-4.7486,-4.7488,-4.7491,0,0,0,0,0,0,0,0,0,0,0,0,0,-4.7469,-4.7441,-4.7531,-4.7499,-4.7496,-4.7548,-4.7548,-4.7548,-4.7478,-4.7475,-4.7472,-4.7469,-4.7485,-4.7488,-4.7491,-4.7575,0,0,-4.7502,-4.7504,0,0,0,0,0,0,0,0,-4.7467,-4.7472,-4.7503,-4.7501,-4.7498,-4.7507,-4.752,-4.7557,-4.7479,-4.7485,-4.7471,-4.7468,-4.7496,-4.7498,-4.7508,-4.7576,-4.7576,-4.7502,-4.7505,-4.7506,-4.7507,0,0,0,0,0,0,0,-4.7465,-4.7471,-4.7538,-4.7504,-4.7501,-4.7483,-4.7484,-4.7527,-4.7507,-4.7484,-4.7479,-4.7482,-4.7494,-4.7505,-4.7508,-4.7577,-4.7502,-4.7505,-4.7508,-4.7509,-4.7714,-4.7717,0,0,0,0,0,0,-4.7468,-4.747,-4.7537,-4.7538,-4.7475,-4.7487,-4.7488,-4.7507,-4.7507,-4.7504,-4.7485,-4.7479,-4.75,-4.7504,-4.7508,-4.7605,-4.7506,-4.7509,-4.7511,-4.7711,-4.7715,-4.7718,0,0,0,0,0,0,-4.7466,-4.7474,-4.7537,-4.7503,-4.7509,-4.7492,-4.7514,-4.7509,-4.752,-4.7507,-4.7503,-4.75,-4.7498,-4.7503,-4.7559,-4.7604,-4.7511,-4.7514,-4.7707,-4.7712,-4.7717,-4.78,0,0,0,0,0,0,-4.7463,-4.7474,-4.7506,-4.7504,-4.7511,-4.7588,-4.7517,-4.7512,-4.7527,-4.7519,-4.752,-4.7517,-4.7496,-4.7554,-4.7563,-4.7608,-4.7517,-4.7702,-4.7709,-4.7715,-4.7793,-4.7807,-4.782,0,0,0,0,0,-4.746,-4.7528,-4.7507,-4.7516,-4.7551,-4.759,-4.7595,-4.7569,-4.7531,-4.7562,-4.7554,-4.7517,-4.7599,-4.7561,-4.7569,-4.7616,-4.7699,-4.7707,-4.7714,-4.7787,-4.7805,-4.7819,0,0,0,0,0,0,-4.7534,-4.7527,-4.7504,-4.7573,-4.7583,-4.7578,-4.7617,-4.7588,-4.7608,-4.76,-4.7568,-4.7568,-4.763,-4.7629,-4.7586,-4.7697,-4.7642,-4.7652,-4.7695,-4.7711,-4.7724,-4.7722,-4.752,0,0,0,0,0,-4.7559,-4.7592,-4.7584,-4.7646,-4.7652,-4.7634,-4.7651,-4.7631,-4.7639,-4.7642,-4.7638,-4.7647,-4.7675,-4.7693,-4.7718,-4.7794,-4.7793,-4.7831,-4.7844,-4.7855,-4.7863,-4.7902,-4.7919,-4.7743,-4.7743,-4.7743,0,0,-4.7609,-4.7609,-4.7632,-4.7661,-4.7666,-4.7701,-4.7638,-4.7677,-4.7702,-4.7648,-4.77,-4.7698,-4.7706,-4.7772,-4.7801,-4.7773,-4.7912,-4.7865,-4.7873,-4.7875,-4.7912,-4.7928,-4.7943,-4.7748,-4.7747,-4.7747,0,0,-4.7718,-4.7722,-4.7774,-4.7781,-4.779,-4.7778,-4.7791,-4.7791,-4.7788,-4.784,-4.78,-4.783,-4.7879,-4.7886,-4.7896,-4.8011,-4.7978,-4.8021,-4.8088,-4.8127,-4.8141,-4.8153,-4.8192,-4.8207,-4.8029,-4.8029,-4.8029,0,-4.7779,-4.783,-4.7804,-4.7846,-4.786,-4.7814,-4.7866,-4.7874,-4.7891,-4.7901,-4.7871,-4.7931,-4.7933,-4.8,-4.8029,-4.8039,-4.8052,-4.8018,-4.8141,-4.8153,-4.8164,-4.8201,-4.8216,-4.8034,-4.8034,-4.8033,-4.8033,0,-4.7904,-4.794,-4.7981,-4.7999,-4.8018,-4.8065,-4.8046,-4.8068,-4.8048,-4.8039,-4.8093,-4.8095,-4.8119,-4.8134,-4.8114,-4.8199,-4.8181,-4.8147,-4.8091,-4.8186,-4.822,-4.8235,-4.8041,-4.8039,-4.8038,-4.8037,0,0,-4.8056,-4.8062,-4.8077,-4.8084,-4.8093,-4.812,-4.8166,-4.819,-4.8209,-4.8224,-4.826,-4.8304,-4.8272,-4.8284,-4.8264,-4.8299,-4.8389,-4.826,-4.826,-4.8282,-4.8481,-4.8505,-4.8522,-4.8368,-4.8371,-4.8373,-4.848,0,-4.8161,-4.8239,-4.8219,-4.8296,-4.8329,-4.8287,-4.8327,-4.8336,-4.833,-4.8357,-4.8351,-4.8381,-4.8338,-4.8345,-4.8378,-4.8371,-4.8428,-4.8363,-4.84,-4.8402,-4.8397,-4.854,-4.8566,-4.8666,-4.8493,-4.8495,-4.8497,0,-4.8294,-4.8314,-4.8395,-4.8399,-4.8412,-4.8448,-4.8469,-4.8496,-4.8506,-4.8499,-4.8514,-4.8488,-4.8532,-4.8479,-4.854,-4.8496,-4.8511,-4.851,-4.8514,-4.8513,-4.8453,-4.8542,-4.8697,-4.8712,-4.8518,-4.8517,-4.8515,0,-4.8395,-4.8442,-4.8497,-4.8505,-4.8511,-4.8537,-4.8541,-4.8548,-4.8565,-4.8584,-4.8594,-4.8618,-4.8631,-4.865,-4.8632,-4.8595,-4.8695,-4.864,-4.8689,-4.869,-4.8709,-4.8708,-4.8867,-4.8724,-4.8723,-4.8723,-4.8723,0,-4.8513,-4.8564,-4.8542,-4.8575,-4.8631,-4.8608,-4.8664,-4.8662,-4.867,-4.8702,-4.8668,-4.8699,-4.8674,-4.8703,-4.8689,-4.874,-4.8747,-4.8742,-4.8737,-4.8743,-4.8744,-4.875,-4.8742,-4.8727,-4.8726,-4.8725,-4.8725,0,-4.8633,-4.8621,-4.8678,-4.868,-4.8682,-4.8722,-4.8724,-4.8754,-4.8747,-4.8788,-4.8797,-4.8785,-4.8817,-4.8802,-4.8835,-4.8826,-4.8892,-4.8879,-4.8888,-4.8884,-4.8934,-4.8929,-4.91,-4.9121,-4.8967,-4.8968,-4.8969,0,-4.8708,-4.8746,-4.8753,-4.8773,-4.8779,-4.8811,-4.8828,-4.8807,-4.8826,-4.8842,-4.8871,-4.89,-4.8922,-4.8976,-4.897,-4.8995,-4.8981,-4.904,-4.8985,-4.899,-4.898,-4.8977,-4.898,-4.905,-4.9052,-4.9053,-4.9055,0,-4.8842,-4.8835,-4.8861,-4.8886,-4.8908,-4.8926,-4.8942,-4.896,-4.894,-4.8963,-4.8996,-4.9014,-4.9048,-4.9078,-4.91,-4.9103,-4.9076,-4.9073,-4.9085,-4.909,-4.9094,-4.9091,-4.8916,-4.9068,-4.9067,-4.9066,-4.9065,-4.9064,-4.894,-4.8972,-4.8982,-4.9013,-4.9023,-4.9039,-4.9068,-4.9065,-4.9093,-4.912,-4.9106,-4.9144,-4.9154,-4.9182,-4.919,-4.9219,-4.9195,-4.9214,-4.9218,-4.9222,-4.9228,-4.9092,-4.9223,-4.9223,-4.9222,-4.9222,-4.9222,0,-4.9071,-4.9076,-4.9105,-4.9128,-4.9153,-4.9127,-4.9143,-4.9164,-4.9199,-4.9211,-4.9234,-4.9272,-4.9301,-4.9299,-4.9325,-4.9349,-4.9337,-4.9357,-4.9353,-4.9354,-4.9248,-4.9234,-4.9366,-4.9366,-4.9366,-4.9366,-4.9366,-4.9366,-4.9141,-4.9194,-4.9188,-4.9246,-4.925,-4.9288,-4.9299,-4.9314,-4.9323,-4.9368,-4.9392,-4.9391,-4.9397,-4.9424,-4.945,-4.9448,-4.9459,-4.9483,-4.9476,-4.9376,-4.9362,-4.9348,-4.9334,-4.9486,-4.9486,-4.958,-4.958,-4.9581]},{"header":{"parameterUnit":"m.s-1","parameterCategory":1,"la1":30.2991,"la2":30.254,"lo1":-89.0895,"lo2":-89.0444,"dy":0.0017,"dx":0.0017,"nx":28,"ny":28,"refTime":"2023-08-20T03:00:00:Z","depth":0,"parameterNumber":3,"parameterNumberName":"V-component_of_WINDS"},"data":[0,0,0,0,0,0,0,0,0,0,0,0,0,0,0,0,0,0,0,0,0,0,0,0,0,0,0,0,0,0,0,0,0,0,0,0,0,0,0,0,0,0,0,0,0,0,0,0,0,0,0,0,0,0,0,0,0,0,2.8697,2.8697,0,2.8742,2.8742,2.8743,2.8778,2.8778,2.8778,2.8779,2.8821,2.8822,2.8823,0,0,0,0,0,0,0,0,0,0,0,0,0,2.8638,2.8639,2.8697,2.8697,2.8698,2.8742,2.8743,2.8743,2.8778,2.8778,2.8778,2.8779,2.8821,2.8822,2.8823,0,0,0,0,0,0,0,0,0,0,0,0,0,2.8671,2.8639,2.8697,2.872,2.8723,2.8742,2.8743,2.8743,2.8778,2.8778,2.8779,2.8779,2.8821,2.8822,2.8823,2.8821,0,0,2.8827,2.8827,0,0,0,0,0,0,0,0,2.8669,2.8673,2.8716,2.8719,2.8722,2.8755,2.8738,2.8769,2.8777,2.8757,2.8779,2.8779,2.8799,2.8802,2.8809,2.8823,2.8825,2.8827,2.8828,2.8828,2.8829,0,0,0,0,0,0,0,2.8667,2.8672,2.8715,2.8717,2.872,2.8728,2.8733,2.8744,2.8774,2.8759,2.8761,2.8766,2.88,2.8808,2.881,2.8825,2.8827,2.8828,2.8829,2.8829,2.884,2.884,0,0,0,0,0,0,2.8661,2.8669,2.8713,2.8716,2.8696,2.8729,2.8735,2.8744,2.8774,2.8779,2.8766,2.8768,2.8805,2.8809,2.8812,2.8812,2.8828,2.8829,2.883,2.8841,2.884,2.884,0,0,0,0,0,0,2.866,2.8665,2.8711,2.8693,2.87,2.8729,2.8739,2.8744,2.8752,2.878,2.8785,2.8768,2.8806,2.881,2.8819,2.8813,2.883,2.8831,2.8841,2.8841,2.884,2.8811,0,0,0,0,0,0,2.8658,2.8664,2.8664,2.8693,2.8701,2.8718,2.8739,2.8745,2.8754,2.8757,2.8783,2.8788,2.8807,2.8817,2.882,2.8815,2.8832,2.8842,2.8841,2.884,2.8812,2.8809,2.8806,0,0,0,0,0,2.8656,2.8653,2.8664,2.8669,2.8701,2.8718,2.8722,2.8744,2.8754,2.8753,2.8772,2.8787,2.8814,2.8817,2.8821,2.8817,2.8842,2.8841,2.884,2.8813,2.881,2.8806,0,0,0,0,0,0,2.862,2.8657,2.8669,2.8676,2.8694,2.8723,2.8724,2.8739,2.8754,2.8756,2.8782,2.8788,2.8794,2.8806,2.881,2.8817,2.883,2.883,2.8808,2.8805,2.8802,2.8798,2.8833,0,0,0,0,0,2.8613,2.8625,2.8656,2.8658,2.8667,2.8694,2.8702,2.8718,2.8737,2.8744,2.8763,2.8779,2.8792,2.8799,2.8812,2.8815,2.8821,2.8814,2.8811,2.8808,2.8807,2.881,2.8808,2.8837,2.8837,2.8837,0,0,2.8599,2.862,2.8625,2.8652,2.8667,2.8678,2.87,2.8709,2.8717,2.8745,2.8755,2.8769,2.879,2.8796,2.8799,2.8806,2.8801,2.8807,2.8805,2.8805,2.8809,2.8806,2.8804,2.8836,2.8836,2.8836,0,0,2.8578,2.8595,2.86,2.8616,2.864,2.8658,2.8659,2.8687,2.8698,2.8709,2.873,2.874,2.876,2.8774,2.8784,2.877,2.8785,2.8774,2.8758,2.8761,2.8758,2.8756,2.8752,2.875,2.8773,2.8773,2.8773,0,2.8556,2.8573,2.86,2.8609,2.862,2.8648,2.8652,2.8666,2.8692,2.8699,2.8707,2.8735,2.875,2.876,2.8757,2.8764,2.8766,2.877,2.8757,2.8755,2.8754,2.8749,2.8748,2.8771,2.8772,2.8772,2.8772,0,2.8546,2.8558,2.8559,2.8585,2.8597,2.8603,2.863,2.8638,2.8654,2.8671,2.8682,2.8702,2.872,2.8724,2.8738,2.8736,2.874,2.8752,2.8766,2.8749,2.8745,2.8744,2.8769,2.877,2.877,2.8771,0,0,2.8502,2.8545,2.8544,2.8558,2.8587,2.8596,2.8605,2.8624,2.863,2.8648,2.8655,2.8673,2.8685,2.8696,2.8713,2.8715,2.8703,2.8727,2.8728,2.8722,2.8702,2.8693,2.869,2.8714,2.8714,2.8713,2.8701,0,2.8485,2.8503,2.8527,2.8536,2.8548,2.8575,2.8582,2.8601,2.8618,2.8629,2.8647,2.866,2.8675,2.8682,2.8685,2.8704,2.87,2.8705,2.872,2.872,2.8714,2.8689,2.8678,2.8665,2.8699,2.8699,2.8699,0,2.8467,2.8486,2.8496,2.8526,2.8532,2.8538,2.8558,2.8569,2.8591,2.8603,2.8617,2.8635,2.8645,2.8658,2.8672,2.8675,2.8683,2.8693,2.8693,2.8694,2.8708,2.8689,2.8661,2.8659,2.8697,2.8697,2.8697,0,2.8434,2.8461,2.8472,2.8482,2.8517,2.8521,2.8535,2.8558,2.8568,2.8586,2.8592,2.861,2.8619,2.8632,2.8655,2.8663,2.8666,2.8681,2.8676,2.8675,2.8675,2.8674,2.8647,2.868,2.868,2.8681,2.8681,0,2.8413,2.8418,2.8457,2.8463,2.847,2.8499,2.8505,2.8522,2.8542,2.8551,2.8576,2.8584,2.8614,2.8625,2.8643,2.8652,2.8656,2.8665,2.867,2.8663,2.8662,2.8668,2.8669,2.868,2.868,2.868,2.868,0,2.8376,2.8403,2.8416,2.8449,2.8458,2.8461,2.8489,2.8496,2.8515,2.8527,2.8531,2.856,2.8576,2.86,2.8621,2.8634,2.8639,2.8647,2.8632,2.8635,2.8628,2.8628,2.8604,2.8602,2.8636,2.8636,2.8635,0,2.836,2.8366,2.84,2.8409,2.8423,2.8437,2.8449,2.8477,2.8487,2.8514,2.8517,2.8535,2.855,2.8573,2.8595,2.8612,2.862,2.8611,2.8623,2.8616,2.862,2.8619,2.862,2.8607,2.8607,2.8606,2.8606,0,2.8329,2.8343,2.8359,2.838,2.8394,2.8411,2.843,2.8435,2.8468,2.8478,2.8495,2.8507,2.853,2.8547,2.8568,2.8582,2.8599,2.8602,2.8602,2.8595,2.8586,2.859,2.8624,2.8602,2.8603,2.8603,2.8603,2.8603,2.8303,2.8309,2.8335,2.8352,2.837,2.8387,2.8396,2.8417,2.8432,2.8454,2.847,2.8485,2.8508,2.8537,2.8551,2.8563,2.857,2.857,2.857,2.8569,2.8566,2.8585,2.8567,2.8567,2.8567,2.8567,2.8567,0,2.8273,2.8292,2.8308,2.8334,2.8348,2.8365,2.8387,2.8397,2.8411,2.8431,2.8447,2.8466,2.8483,2.8508,2.8526,2.8531,2.854,2.8535,2.8534,2.8538,2.8559,2.8557,2.8528,2.8528,2.8528,2.8528,2.8528,2.8528,2.8259,2.8271,2.8288,2.8309,2.8327,2.8344,2.8355,2.8371,2.8388,2.8409,2.8424,2.844,2.8462,2.8483,2.8499,2.8506,2.8511,2.8504,2.8513,2.8532,2.8536,2.8539,2.8538,2.8505,2.8505,2.8492,2.8491,2.8491]}]]